Location: Unspecified
(0.0000°N, 0.0000°E)
Time: 13:29:52
(UTC+00:00)

Vanguard 2 Rocket - All Passes

Search period start: 16 November 2018 00:00
Search period end: 26 November 2018 00:00
Orbit: 553 x 3328 km, 32.9° (Epoch: 15 November)

Date Brightness Start Highest point End Pass type
(mag) Time Alt. Az. Time Alt. Az. Time Alt. Az.
16 Nov - 08:48:28 10° SSW 08:53:40 26° SE 09:01:30 10° E daylight
16 Nov - 10:59:18 10° WSW 11:07:29 76° NNW 11:22:27 10° NE daylight
16 Nov - 13:14:46 10° W 13:25:22 32° NNW 13:40:50 10° NE daylight
16 Nov - 15:36:27 10° NW 15:47:58 19° N 16:00:43 10° NNE daylight
16 Nov - 17:59:03 10° NNW 18:12:58 22° NNE 18:25:00 10° ENE visible
16 Nov - 20:17:46 10° NW 20:34:31 41° NNE 20:45:21 10° E visible
16 Nov - 22:36:39 10° WNW 22:51:29 80° SW 22:59:33 10° SE visible
17 Nov - 00:59:44 10° WSW 01:04:59 16° SW 01:09:00 10° S night (unlit)
17 Nov - 07:52:10 10° SSE 07:54:16 12° SE 07:56:40 10° ESE daylight
17 Nov - 10:00:24 10° SW 10:07:17 76° SE 10:19:56 10° ENE daylight
17 Nov - 12:14:08 10° W 12:23:28 39° NNW 12:38:32 10° NE daylight
17 Nov - 14:33:32 10° NW 14:44:17 21° N 14:57:28 10° NNE daylight
17 Nov - 16:56:20 10° NNW 17:09:05 20° N 17:21:24 10° NE daylight
17 Nov - 19:15:31 10° NW 19:32:14 33° NNE 19:44:22 10° E visible
17 Nov - 21:33:56 10° NW 21:50:54 75° NNE 22:00:26 10° ESE visible
17 Nov - 23:55:14 10° W 00:05:25 32° SW 00:11:48 10° SSE night (unlit)
18 Nov - 09:01:58 10° SSW 09:07:39 45° SE 09:17:19 10° ENE daylight
18 Nov - 11:14:13 10° WSW 11:22:15 50° NNW 11:36:20 10° NE daylight
18 Nov - 13:31:28 10° WNW 13:41:17 23° NNW 13:54:34 10° NNE daylight
18 Nov - 15:53:37 10° NW 16:04:59 18° N 16:17:07 10° NE daylight
18 Nov - 18:13:24 10° NNW 18:29:18 28° NNE 18:42:23 10° ENE visible
18 Nov - 20:31:27 10° NW 20:49:37 58° NNE 21:00:45 10° ESE visible
18 Nov - 22:51:31 10° WNW 23:05:37 53° SW 23:13:38 10° SE visible
19 Nov - 08:04:11 10° S 08:08:25 23° SE 08:14:25 10° E daylight
19 Nov - 10:14:53 10° WSW 10:21:42 68° NNW 10:34:14 10° NE daylight
19 Nov - 12:30:14 10° WNW 12:39:01 27° NNW 12:52:02 10° NNE daylight
19 Nov - 14:51:02 10° NW 15:01:03 18° N 15:12:43 10° NE daylight
19 Nov - 17:11:24 10° NNW 17:25:49 23° NNE 17:39:12 10° ENE daylight
19 Nov - 19:29:12 10° NW 19:47:39 45° NNE 20:00:22 10° E visible
19 Nov - 21:48:14 10° WNW 22:05:16 78° SW 22:14:53 10° SE visible
20 Nov - 00:12:05 10° W 00:19:31 19° SW 00:24:52 10° S night (unlit)
20 Nov - 09:16:01 10° SW 09:21:49 80° SE 09:32:13 10° ENE daylight
20 Nov - 11:29:46 10° W 11:37:29 33° NNW 11:49:52 10° NE daylight
20 Nov - 13:48:49 10° NW 13:57:39 18° N 14:08:47 10° NNE daylight
20 Nov - 16:09:34 10° NNW 16:21:57 20° NNE 16:34:47 10° NE daylight
20 Nov - 18:27:16 10° NW 18:45:05 37° NNE 18:59:04 10° E visible
20 Nov - 20:45:23 10° NW 21:04:18 80° NE 21:15:36 10° ESE visible
20 Nov - 23:07:13 10° W 23:19:37 34° SW 23:27:18 10° SSE visible
21 Nov - 08:17:38 10° SSW 08:22:26 43° SE 08:30:12 10° ENE daylight
21 Nov - 10:29:55 10° W 10:36:35 42° NNW 10:48:01 10° NE daylight
21 Nov - 12:47:09 10° NW 12:55:00 20° NNW 13:05:36 10° NNE daylight
21 Nov - 15:07:51 10° NNW 15:18:01 17° N 15:29:30 10° NE daylight
21 Nov - 17:25:38 10° NNW 17:41:59 30° NNE 17:56:37 10° ENE daylight
21 Nov - 19:42:57 10° NW 20:02:38 62° NNE 20:15:41 10° ESE visible
21 Nov - 22:03:09 10° WNW 22:19:23 54° SW 22:28:56 10° SE visible
22 Nov - 00:31:26 10° SW 00:34:00 11° SW 00:36:16 10° SSW night (unlit)
22 Nov - 07:19:53 10° S 07:23:21 20° SE 07:27:55 10° E daylight
22 Nov - 09:30:37 10° WSW 09:36:20 59° NNW 09:46:26 10° NE daylight
22 Nov - 11:46:06 10° WNW 11:53:05 22° NNW 12:03:10 10° NNE daylight
22 Nov - 14:06:15 10° NNW 14:14:24 16° N 14:24:08 10° NNE daylight
22 Nov - 16:24:21 10° NNW 16:38:31 24° NNE 16:52:49 10° ENE daylight
22 Nov - 18:40:59 10° NW 19:00:21 49° NNE 19:14:58 10° E visible
22 Nov - 20:59:44 10° WNW 21:18:36 76° SW 21:29:58 10° SE visible
22 Nov - 23:24:02 10° W 23:33:47 22° SW 23:40:32 10° S visible
23 Nov - 08:31:44 10° SW 08:36:40 86° SSE 08:45:01 10° NE daylight
23 Nov - 10:45:42 10° WNW 10:51:53 26° NNW 11:01:23 10° NNE daylight
23 Nov - 13:04:45 10° NW 13:11:23 15° N 13:19:36 10° NNE daylight
23 Nov - 15:23:23 10° NNW 15:34:51 19° NNE 15:47:34 10° NE daylight
23 Nov - 17:39:29 10° NW 17:57:36 39° NNE 18:13:16 10° E visible
23 Nov - 19:56:57 10° NW 20:17:11 83° NE 20:30:26 10° ESE visible
23 Nov - 22:18:54 10° W 22:33:26 37° SW 22:42:37 10° SSE visible
24 Nov - 07:33:17 10° SSW 07:37:28 43° SE 07:43:40 10° ENE daylight
24 Nov - 09:45:50 10° W 09:51:17 33° NNW 10:00:05 10° NE daylight
24 Nov - 12:03:26 10° NW 12:09:05 15° N 12:16:21 10° NNE daylight
24 Nov - 14:22:42 10° NNW 14:31:16 16° N 14:41:17 10° NE daylight
24 Nov - 16:38:26 10° NNW 16:54:29 31° NNE 17:10:19 10° E daylight
24 Nov - 18:54:48 10° NW 19:15:10 66° NE 19:30:12 10° ESE visible
24 Nov - 21:14:42 10° WNW 21:32:43 55° SW 21:43:59 10° SE visible
24 Nov - 23:42:35 10° WSW 23:48:21 14° SW 23:52:59 10° S visible
25 Nov - 06:35:26 10° S 06:38:26 19° SE 06:42:01 10° E daylight
25 Nov - 08:46:26 10° WSW 08:51:16 48° NNW 08:59:09 10° NE daylight
25 Nov - 11:02:29 10° NW 11:07:32 17° NNW 11:14:19 10° NNE daylight
25 Nov - 13:22:14 10° NNW 13:28:03 13° N 13:34:53 10° NNE daylight
25 Nov - 15:37:51 10° NNW 15:51:12 24° NNE 16:05:51 10° ENE daylight
25 Nov - 17:53:14 10° NW 18:12:40 52° NNE 18:29:08 10° ESE visible
25 Nov - 20:11:22 10° WNW 20:31:27 74° SW 20:44:44 10° SE visible
25 Nov - 22:35:44 10° W 22:47:43 25° SW 22:56:00 10° SSE visible
